#timestamp,LO_Frequency,Hit,StdDev 
1557018015.6,286046997.1,N
1557018035.4,286046999.0,N
1557018055.3,286047000.8,N
1557018075.1,286047000.7,N
1557018095.9,286046998.3,N
1557018115.7,286047000.0,N
1557018135.5,286047002.4,N
1557018155.4,286046999.9,N
1557018175.2,286047000.1,N
1557018195.0,286047000.9,N
1557018195.9,286047000.9,N
1557018215.8,286047003.6,N
1557018235.6,286047007.2,N
1557018255.5,286047007.3,N
1557018275.3,286047006.7,N
1557018295.1,286047006.1,N
1557018315.9,286047006.3,N
1557018335.7,286047009.1,N
1557018355.5,286047006.9,N
1557018375.4,286047006.1,N
1557018395.2,286047006.8,N
1557018415.1,286047009.2,N
1557018416.0,286047009.2,N
1557018435.8,286047006.6,N
1557018455.6,286047007.7,N
1557018475.5,286047008.6,N
1557018495.3,286047009.5,N
1557018515.1,286047011.1,N
1557018535.9,286047013.0,N
1557018555.7,286047012.6,N
1557018575.6,286047014.0,Y
1557018595.4,286047007.3,P
1557018615.2,286047006.9,P
1557018635.1,286047011.9,P
1557018636.0,286047009.0,Y
1557018655.8,286047000.8,P
1557018675.7,286047001.1,N
1557018695.5,286046996.9,N
1557018715.3,286046997.6,N
1557018735.2,286046994.9,N
1557018755.9,286046999.5,N
1557018775.7,286046996.6,N
1557018795.6,286046997.6,N
1557018815.4,286046996.2,N
1557018835.2,286046994.1,N
1557018855.1,286046994.5,N
1557018856.0,286046994.5,N
1557018875.8,286046993.4,N
1557018895.7,286046991.7,N
1557018915.5,286046993.8,N
1557018935.3,286046996.8,N
1557018955.2,286046997.1,N
1557018975.0,286046996.5,N
1557018975.9,286046996.5,N
1557018995.8,286046996.9,N
1557019015.6,286046999.6,N
1557019035.4,286046997.3,N
1557019055.3,286046996.6,N
1557019075.1,286046999.2,N
1557019095.8,286046995.3,N
1557019115.7,286046994.9,N
1557019135.5,286046997.0,N
1557019155.4,286046999.2,N
1557019175.2,286046997.5,N
1557019195.0,286046997.2,N
1557019195.9,286046997.2,N
1557019215.8,286046997.3,N
1557019235.6,286046995.9,N
1557019255.5,286046993.8,Y
1557019275.3,286046998.1,P
1557019295.1,286047000.1,N
1557019315.9,286047002.0,N
1557019335.7,286047001.8,N
1557019355.5,286047003.7,N
1557019375.4,286047004.7,N
1557019395.2,286047004.8,N
1557019415.1,286047006.2,N
1557019416.0,286047006.2,N
1557019435.8,286047004.7,N
1557019455.6,286047002.9,N
1557019475.5,286047005.2,N
1557019495.3,286047004.1,N
1557019515.1,286047005.9,N
1557019535.9,286047003.4,N
1557019555.7,286047005.6,N
1557019575.6,286047005.6,N
1557019595.4,286047003.6,N
1557019615.2,286047004.1,N
1557019635.1,286047003.0,N
1557019636.0,286047003.0,N
1557019655.8,286047003.6,N
1557019675.6,286047002.3,N
1557019695.5,286047000.1,N
1557019715.3,286047001.1,N
1557019735.2,286046999.5,N
1557019755.9,286046996.8,N
1557019775.7,286046998.7,N
1557019795.6,286047002.7,N
1557019815.4,286047003.9,N
1557019835.2,286047005.7,N
1557019855.1,286047003.0,N
1557019856.0,286047003.0,N
1557019875.8,286047005.0,N
1557019895.7,286047002.9,N
1557019915.5,286047005.1,N
1557019935.3,286047002.9,N
1557019955.2,286047005.7,N
1557019975.9,286047004.7,N
1557019995.7,286047006.0,N
1557020015.6,286047004.1,N
1557020035.4,286047004.2,N
1557020055.3,286047001.6,N
1557020075.1,286047002.8,N
1557020076.0,286047002.8,N
1557020095.8,286047000.0,N
1557020115.7,286047000.4,N
1557020135.5,286047000.0,N
1557020155.3,286047002.7,N
1557020175.2,286047003.5,N
1557020195.0,286047002.9,N
1557020195.9,286047002.9,N
1557020215.8,286047003.4,N
1557020235.6,286047003.7,N
1557020255.4,286047004.1,N
1557020275.3,286047005.8,N
1557020295.1,286047004.2,N
1557020315.8,286047003.5,N
1557020335.7,286047005.2,Y
1557020355.5,286047003.8,P
1557020375.4,286047003.6,P
1557020395.2,286047003.1,P
1557020415.0,286047003.5,Y
1557020415.9,286047003.5,P
1557020435.8,286047000.9,P
1557020455.6,286046999.2,N
1557020475.5,286046999.4,N
1557020495.3,286046996.9,N
1557020515.1,286046997.2,N
1557020535.9,286046998.7,N
1557020555.7,286047001.2,N
1557020575.5,286046998.1,N
1557020595.4,286047001.0,N
1557020615.2,286046998.5,N
1557020635.1,286046996.9,N
1557020636.0,286046996.9,N
1557020655.8,286046997.5,N
1557020675.6,286046997.0,N
1557020695.5,286046999.3,N
1557020715.3,286046997.1,N
1557020735.1,286046997.2,N
1557020755.9,286046997.8,N
1557020775.7,286046996.6,N
1557020795.6,286046996.7,N
1557020815.4,286046997.4,N
1557020835.2,286046997.3,N
1557020855.1,286046998.0,N
1557020856.0,286046998.0,N
1557020875.8,286046996.9,N
1557020895.7,286046999.3,N
1557020915.5,286046997.3,N
1557020935.3,286046997.6,N
1557020955.2,286046995.0,N
1557020975.0,286046996.4,N
1557020975.9,286046996.4,N
1557020995.8,286046993.4,Y
1557021015.6,286046999.4,P
1557021035.4,286046999.6,N
1557021055.3,286046997.3,P
1557021075.1,286046999.1,N
1557021095.8,286046996.9,Y
1557021115.7,286046998.6,P
1557021135.5,286046998.4,P
1557021155.4,286046998.1,P
1557021175.2,286046998.1,Y
1557021195.0,286046998.1,P
1557021195.9,286046998.1,P
1557021215.8,286046998.6,P
1557021235.6,286047000.7,Y
1557021255.5,286047001.5,P
1557021275.3,286047005.9,P
1557021295.1,286047003.4,N
1557021315.9,286047003.0,N
1557021335.7,286047002.9,N
1557021355.5,286047005.6,N
1557021375.4,286047005.4,N
1557021395.2,286047007.4,Y
1557021415.1,286047004.0,P
1557021416.0,286047004.0,P
1557021435.8,286047001.6,P
1557021455.6,286047001.6,N
1557021475.5,286047001.7,N
1557021495.3,286047001.5,N
1557021515.1,286047001.3,N
1557021535.9,286047001.9,N
1557021555.7,286047001.5,N
1557021575.6,286047001.6,N
1557021595.4,286047002.8,N
